Starlink 1302

operational
NORAD ID: 45375 Int'l Des: 2020-019 Owner: SPXS Country: US Constellation: starlink
LEOCIRCULARSTARLINK_TYPE

关于 Starlink 1302

正在加载描述...

实时位置

正在加载3D地球...

即将过境

高度历史

Altitude vs Time

uPlot chart will show altitude changes over time

两行轨道根数

1 45375U 20019R 26033.49895608 .00066809 00000-0 14640-2 0 9995
2 45375 53.0552 319.8795 0001003 91.8075 268.3045 15.43500278324497
Epoch: Feb 2, 2026 • Age: 16 hours

当前状态

高度 440.5 km
速度 7.65 km/s
星下点 48.87°N, 174.94°W
发射日期 Mar 18, 2020
运行时间 5.8 years
类型 internet

技术详情

分类 Payload
质量 260.00 kg
干质量 248.00 kg
总质量 260.00 kg
长度 0.20 m
直径 2.80 m
跨度 9.00 m
形状 Box + pan
制造商 SPXS
平台类型 Starlink
阶段状态 In Orbit
所有者/国家 SPXS/US

大型星座

Loading constellations...